Time,TemperatureF,DewpointF,PressureIn,WindDirection,WindDirectionDegrees,WindSpeedMPH,WindSpeedGustMPH,Humidity,HourlyPrecipIn,Conditions,Clouds,dailyrainin,SolarRadiationWatts/m^2,SoftwareType,DateUTC
2013-03-21 00:03:00,32.0,31.0,30.22,NNE,17,4.0,48.0,96,0.00,,,0.00,0.000000,,2013-03-21 04:03:00,
2013-03-21 00:33:00,30.0,27.0,30.21,SE,134,3.0,15.0,90,0.00,,,0.00,0.000000,,2013-03-21 04:33:00,
2013-03-21 00:43:00,30.0,27.0,30.21,SE,134,3.0,15.0,90,0.00,,,0.00,0.000000,,2013-03-21 04:43:00,
2013-03-21 00:53:00,30.0,27.0,30.21,SE,134,3.0,15.0,90,0.00,,,0.00,0.000000,,2013-03-21 04:53:00,
2013-03-21 01:03:00,30.0,27.0,30.21,SE,134,3.0,15.0,90,0.00,,,0.00,0.000000,,2013-03-21 05:03:00,
2013-03-21 01:33:00,30.0,25.0,30.20,ENE,60,3.0,18.0,83,0.00,,,0.00,0.000000,,2013-03-21 05:33:00,
2013-03-21 01:44:00,30.0,25.0,30.20,ENE,60,3.0,18.0,83,0.00,,,0.00,0.000000,,2013-03-21 05:44:00,
2013-03-21 01:52:00,30.0,25.0,30.20,ENE,60,3.0,18.0,83,0.00,,,0.00,0.000000,,2013-03-21 05:52:00,
2013-03-21 02:03:00,30.0,25.0,30.20,ENE,60,3.0,18.0,83,0.00,,,0.00,0.000000,,2013-03-21 06:03:00,
2013-03-21 02:32:00,28.0,22.0,30.18,North,351,3.0,17.0,78,0.00,,,0.00,0.000000,,2013-03-21 06:32:00,
2013-03-21 02:42:00,28.0,22.0,30.18,North,351,3.0,17.0,78,0.00,,,0.00,0.000000,,2013-03-21 06:42:00,
2013-03-21 02:52:00,28.0,22.0,30.18,North,351,3.0,17.0,78,0.00,,,0.00,0.000000,,2013-03-21 06:52:00,
2013-03-21 03:02:00,28.0,22.0,30.18,North,351,3.0,17.0,78,0.00,,,0.00,0.000000,,2013-03-21 07:02:00,
2013-03-21 03:32:00,26.0,19.0,30.17,ENE,77,3.0,15.0,75,0.00,,,0.00,0.000000,,2013-03-21 07:32:00,
2013-03-21 03:43:00,26.0,19.0,30.17,ENE,77,3.0,15.0,75,0.00,,,0.00,0.000000,,2013-03-21 07:43:00,
2013-03-21 03:53:00,26.0,19.0,30.17,ENE,77,3.0,15.0,75,0.00,,,0.00,0.000000,,2013-03-21 07:53:00,
2013-03-21 04:02:00,26.0,19.0,30.17,ENE,77,3.0,15.0,75,0.00,,,0.00,0.000000,,2013-03-21 08:02:00,
2013-03-21 04:33:00,24.0,14.0,30.16,WSW,250,5.0,16.0,66,0.00,,,0.00,0.000000,,2013-03-21 08:33:00,
2013-03-21 04:43:00,24.0,14.0,30.16,WSW,250,5.0,16.0,66,0.00,,,0.00,0.000000,,2013-03-21 08:43:00,
2013-03-21 04:52:00,24.0,14.0,30.16,WSW,250,5.0,16.0,66,0.00,,,0.00,0.000000,,2013-03-21 08:52:00,
2013-03-21 05:02:00,24.0,14.0,30.16,WSW,250,5.0,16.0,66,0.00,,,0.00,0.000000,,2013-03-21 09:02:00,
2013-03-21 05:33:00,22.0,12.0,30.15,NNE,27,4.0,17.0,64,0.00,,,0.00,0.000000,,2013-03-21 09:33:00,
2013-03-21 05:43:00,22.0,12.0,30.15,NNE,27,4.0,17.0,64,0.00,,,0.00,0.000000,,2013-03-21 09:43:00,
2013-03-21 05:53:00,22.0,12.0,30.15,NNE,27,4.0,17.0,64,0.00,,,0.00,0.000000,,2013-03-21 09:53:00,
2013-03-21 06:03:00,22.0,12.0,30.15,NNE,27,4.0,17.0,64,0.00,,,0.00,0.000000,,2013-03-21 10:03:00,
2013-03-21 06:34:00,21.0,12.0,30.15,NNE,28,2.0,14.0,67,0.00,,,0.00,0.000000,,2013-03-21 10:34:00,
2013-03-21 06:43:00,21.0,12.0,30.15,NNE,28,2.0,14.0,67,0.00,,,0.00,0.000000,,2013-03-21 10:43:00,
2013-03-21 06:53:00,21.0,12.0,30.15,NNE,28,2.0,14.0,67,0.00,,,0.00,0.000000,,2013-03-21 10:53:00,
2013-03-21 07:03:00,21.0,12.0,30.15,NNE,28,2.0,14.0,67,0.00,,,0.00,0.000000,,2013-03-21 11:03:00,
2013-03-21 07:33:00,21.0,13.0,30.17,NW,319,2.0,13.0,72,0.00,,,0.00,0.000000,,2013-03-21 11:33:00,
2013-03-21 07:43:00,21.0,13.0,30.17,NW,319,2.0,13.0,72,0.00,,,0.00,0.000000,,2013-03-21 11:43:00,
2013-03-21 07:53:00,21.0,13.0,30.17,NW,319,2.0,13.0,72,0.00,,,0.00,0.000000,,2013-03-21 11:53:00,
2013-03-21 08:03:00,21.0,13.0,30.17,NW,319,2.0,13.0,72,0.00,,,0.00,0.000000,,2013-03-21 12:03:00,
2013-03-21 08:33:00,21.0,13.0,30.16,NE,37,3.0,14.0,71,0.00,,,0.00,3.000000,,2013-03-21 12:33:00,
2013-03-21 08:43:00,21.0,13.0,30.16,NE,37,3.0,14.0,71,0.00,,,0.00,3.000000,,2013-03-21 12:43:00,
2013-03-21 08:53:00,21.0,13.0,30.16,NE,37,3.0,14.0,71,0.00,,,0.00,3.000000,,2013-03-21 12:53:00,
2013-03-21 09:03:00,21.0,13.0,30.16,NE,37,3.0,14.0,71,0.00,,,0.00,3.000000,,2013-03-21 13:03:00,
2013-03-21 09:33:00,22.0,13.0,30.18,NNW,329,3.0,11.0,68,0.00,,,0.00,46.000000,,2013-03-21 13:33:00,
2013-03-21 09:43:00,22.0,13.0,30.18,NNW,329,3.0,11.0,68,0.00,,,0.00,46.000000,,2013-03-21 13:43:00,
2013-03-21 09:53:00,22.0,13.0,30.18,NNW,329,3.0,11.0,68,0.00,,,0.00,46.000000,,2013-03-21 13:53:00,
2013-03-21 10:02:00,22.0,13.0,30.18,NNW,329,3.0,11.0,68,0.00,,,0.00,46.000000,,2013-03-21 14:02:00,
2013-03-21 10:32:00,24.0,14.0,30.19,NNW,329,4.0,16.0,65,0.00,,,0.00,55.000000,,2013-03-21 14:32:00,
2013-03-21 10:43:00,24.0,14.0,30.19,NNW,329,4.0,16.0,65,0.00,,,0.00,55.000000,,2013-03-21 14:43:00,
2013-03-21 10:52:00,24.0,14.0,30.19,NNW,329,4.0,16.0,65,0.00,,,0.00,55.000000,,2013-03-21 14:52:00,
2013-03-21 11:04:00,24.0,14.0,30.19,NNW,329,4.0,16.0,65,0.00,,,0.00,55.000000,,2013-03-21 15:04:00,
2013-03-21 11:33:00,28.0,13.0,30.18,NW,322,6.0,17.0,52,0.00,,,0.00,189.000000,,2013-03-21 15:33:00,
2013-03-21 11:43:00,28.0,13.0,30.18,NW,322,6.0,17.0,52,0.00,,,0.00,189.000000,,2013-03-21 15:43:00,
2013-03-21 11:53:00,28.0,13.0,30.18,NW,322,6.0,17.0,52,0.00,,,0.00,189.000000,,2013-03-21 15:53:00,
2013-03-21 12:03:00,28.0,13.0,30.18,NW,322,6.0,17.0,52,0.00,,,0.00,189.000000,,2013-03-21 16:03:00,
2013-03-21 12:33:00,30.0,15.0,30.20,NNW,330,10.0,28.0,54,0.00,,,0.00,336.000000,,2013-03-21 16:33:00,
2013-03-21 12:42:00,30.0,15.0,30.20,NNW,330,10.0,28.0,54,0.00,,,0.00,336.000000,,2013-03-21 16:42:00,
2013-03-21 12:53:00,30.0,15.0,30.20,NNW,330,10.0,28.0,54,0.00,,,0.00,336.000000,,2013-03-21 16:53:00,
2013-03-21 13:03:00,30.0,15.0,30.20,NNW,330,10.0,28.0,54,0.00,,,0.00,336.000000,,2013-03-21 17:03:00,
2013-03-21 13:33:00,32.0,16.0,30.19,WNW,288,16.0,27.0,51,0.00,,,0.00,724.000000,,2013-03-21 17:33:00,
2013-03-21 13:43:00,32.0,16.0,30.19,WNW,288,16.0,27.0,51,0.00,,,0.00,724.000000,,2013-03-21 17:43:00,
2013-03-21 13:53:00,32.0,16.0,30.19,WNW,288,16.0,27.0,51,0.00,,,0.00,724.000000,,2013-03-21 17:53:00,
2013-03-21 14:02:00,32.0,16.0,30.19,WNW,288,16.0,27.0,51,0.00,,,0.00,724.000000,,2013-03-21 18:02:00,
2013-03-21 14:32:00,32.0,13.0,30.19,NW,314,8.0,31.0,44,0.00,,,0.00,1000.000000,,2013-03-21 18:32:00,
2013-03-21 14:43:00,32.0,13.0,30.19,NW,314,8.0,31.0,44,0.00,,,0.00,1000.000000,,2013-03-21 18:43:00,
2013-03-21 14:52:00,32.0,13.0,30.19,NW,314,8.0,31.0,44,0.00,,,0.00,1000.000000,,2013-03-21 18:52:00,
2013-03-21 15:02:00,32.0,13.0,30.19,NW,314,8.0,31.0,44,0.00,,,0.00,1000.000000,,2013-03-21 19:02:00,
2013-03-21 15:32:00,35.0,13.0,30.18,NW,320,9.0,35.0,39,0.00,,,0.00,962.000000,,2013-03-21 19:32:00,
2013-03-21 15:43:00,35.0,13.0,30.18,NW,320,9.0,35.0,39,0.00,,,0.00,962.000000,,2013-03-21 19:43:00,
2013-03-21 15:53:00,35.0,13.0,30.18,NW,320,9.0,35.0,39,0.00,,,0.00,962.000000,,2013-03-21 19:53:00,
2013-03-21 16:02:00,35.0,13.0,30.18,NW,320,9.0,35.0,39,0.00,,,0.00,962.000000,,2013-03-21 20:02:00,
2013-03-21 16:33:00,36.0,10.0,30.18,NNE,21,5.0,28.0,34,0.00,,,0.00,794.000000,,2013-03-21 20:33:00,
2013-03-21 16:43:00,36.0,10.0,30.18,NNE,21,5.0,28.0,34,0.00,,,0.00,794.000000,,2013-03-21 20:43:00,
2013-03-21 16:53:00,36.0,10.0,30.18,NNE,21,5.0,28.0,34,0.00,,,0.00,794.000000,,2013-03-21 20:53:00,
2013-03-21 17:03:00,36.0,10.0,30.18,NNE,21,5.0,28.0,34,0.00,,,0.00,794.000000,,2013-03-21 21:03:00,
2013-03-21 17:33:00,38.0,11.0,30.18,NNW,335,7.0,29.0,33,0.00,,,0.00,713.000000,,2013-03-21 21:33:00,
2013-03-21 17:43:00,38.0,11.0,30.18,NNW,335,7.0,29.0,33,0.00,,,0.00,713.000000,,2013-03-21 21:43:00,
2013-03-21 17:53:00,38.0,11.0,30.18,NNW,335,7.0,29.0,33,0.00,,,0.00,713.000000,,2013-03-21 21:53:00,
2013-03-21 18:03:00,38.0,11.0,30.18,NNW,335,7.0,29.0,33,0.00,,,0.00,713.000000,,2013-03-21 22:03:00,
2013-03-21 18:34:00,36.0,10.0,30.18,WNW,293,11.0,27.0,33,0.00,,,0.00,572.000000,,2013-03-21 22:34:00,
2013-03-21 18:43:00,36.0,10.0,30.18,WNW,293,11.0,27.0,33,0.00,,,0.00,572.000000,,2013-03-21 22:43:00,
2013-03-21 18:53:00,36.0,10.0,30.18,WNW,293,11.0,27.0,33,0.00,,,0.00,572.000000,,2013-03-21 22:53:00,
2013-03-21 19:02:00,36.0,10.0,30.18,WNW,293,11.0,27.0,33,0.00,,,0.00,572.000000,,2013-03-21 23:02:00,
2013-03-21 19:33:00,33.0,8.0,30.19,WNW,302,6.0,28.0,34,0.00,,,0.00,297.000000,,2013-03-21 23:33:00,
2013-03-21 19:43:00,33.0,8.0,30.19,WNW,302,6.0,28.0,34,0.00,,,0.00,297.000000,,2013-03-21 23:43:00,
2013-03-21 19:53:00,33.0,8.0,30.19,WNW,302,6.0,28.0,34,0.00,,,0.00,297.000000,,2013-03-21 23:53:00,
2013-03-21 20:03:00,33.0,8.0,30.19,WNW,302,6.0,28.0,34,0.00,,,0.00,297.000000,,2013-03-22 00:03:00,
2013-03-21 20:32:00,30.0,10.0,30.20,WNW,289,3.0,22.0,43,0.00,,,0.00,41.000000,,2013-03-22 00:32:00,
2013-03-21 20:42:00,30.0,10.0,30.20,WNW,289,3.0,22.0,43,0.00,,,0.00,41.000000,,2013-03-22 00:42:00,
2013-03-21 20:52:00,30.0,10.0,30.20,WNW,289,3.0,22.0,43,0.00,,,0.00,41.000000,,2013-03-22 00:52:00,
2013-03-21 21:03:00,30.0,10.0,30.20,WNW,289,3.0,22.0,43,0.00,,,0.00,41.000000,,2013-03-22 01:03:00,
2013-03-21 21:33:00,28.0,10.0,30.22,ENE,63,2.0,5.0,46,0.00,,,0.00,0.000000,,2013-03-22 01:33:00,
2013-03-21 21:43:00,28.0,10.0,30.22,ENE,63,2.0,5.0,46,0.00,,,0.00,0.000000,,2013-03-22 01:43:00,
2013-03-21 21:53:00,28.0,10.0,30.22,ENE,63,2.0,5.0,46,0.00,,,0.00,0.000000,,2013-03-22 01:53:00,
2013-03-21 22:03:00,28.0,10.0,30.22,ENE,63,2.0,5.0,46,0.00,,,0.00,0.000000,,2013-03-22 02:03:00,
2013-03-21 22:32:00,27.0,10.0,30.24,SSW,209,1.0,5.0,48,0.00,,,0.00,0.000000,,2013-03-22 02:32:00,
2013-03-21 22:43:00,27.0,10.0,30.24,SSW,209,1.0,5.0,48,0.00,,,0.00,0.000000,,2013-03-22 02:43:00,
2013-03-21 22:53:00,27.0,10.0,30.24,SSW,209,1.0,5.0,48,0.00,,,0.00,0.000000,,2013-03-22 02:53:00,
2013-03-21 23:02:00,27.0,10.0,30.24,SSW,209,1.0,5.0,48,0.00,,,0.00,0.000000,,2013-03-22 03:02:00,
2013-03-21 23:33:00,26.0,10.0,30.25,NW,304,2.0,4.0,51,0.00,,,0.00,0.000000,,2013-03-22 03:33:00,
2013-03-21 23:43:00,26.0,10.0,30.25,NW,304,2.0,4.0,51,0.00,,,0.00,0.000000,,2013-03-22 03:43:00,
2013-03-21 23:53:00,26.0,10.0,30.25,NW,304,2.0,4.0,51,0.00,,,0.00,0.000000,,2013-03-22 03:53:00,